This is the latest recevied weather packets stored in our database for station/object 9M4RBN-3. If no packets are shown the sender has not sent any weather packets the latest 1 day(s).
| Time | Temp. | Humidity | Pressure | Rain* | Wind** | Luminosity | Snow |
|---|---|---|---|---|---|---|---|
| 1777877497 | 26.11° C | 51% | 1014.5 hPa | - | - | - | - |
| 1777876597 | 26.11° C | 51% | 1015 hPa | - | - | - | - |
| 1777875697 | 26.11° C | 51% | 1015.2 hPa | - | - | - | - |
| 1777874797 | 26.11° C | 51% | 1015.5 hPa | - | - | - | - |
| 1777873897 | 26.11° C | 51% | 1015.7 hPa | - | - | - | - |
| 1777872997 | 26.11° C | 51% | 1016 hPa | - | - | - | - |
| 1777872097 | 26.11° C | 50% | 1016.1 hPa | - | - | - | - |
| 1777871230 | 26.11° C | 51% | 1016.4 hPa | - | - | - | - |
| 1777871197 | 26.11° C | 51% | 1016.4 hPa | - | - | - | - |
| 1777870297 | 26.11° C | 51% | 1016.7 hPa | - | - | - | - |
| 1777869397 | 26.67° C | 54% | 1016.8 hPa | - | - | - | - |
| 1777868496 | 27.22° C | 64% | 1017 hPa | - | - | - | - |
| 1777867596 | 27.78° C | 78% | 1017.2 hPa | - | - | - | - |
| 1777866696 | 27.78° C | 77% | 1017.3 hPa | - | - | - | - |
| 1777865796 | 27.78° C | 78% | 1017.3 hPa | - | - | - | - |
| 1777864896 | 27.22° C | 78% | 1017.4 hPa | - | - | - | - |
| 1777863996 | 27.22° C | 77% | 1017.4 hPa | - | - | - | - |
| 1777863096 | 27.22° C | 77% | 1017.3 hPa | - | - | - | - |
| 1777862198 | 27.22° C | 76% | 1017.2 hPa | - | - | - | - |
| 1777861298 | 26.67° C | 76% | 1017.3 hPa | - | - | - | - |
| 1777860398 | 26.67° C | 74% | 1017.4 hPa | - | - | - | - |
| 1777859497 | 26.67° C | 73% | 1017.3 hPa | - | - | - | - |
| 1777858597 | 26.67° C | 72% | 1017.1 hPa | - | - | - | - |
| 1777857697 | 26.67° C | 72% | 1016.8 hPa | - | - | - | - |
| 1777856797 | 26.11° C | 70% | 1016.7 hPa | - | - | - | - |
* Rain since midnight (hover to see other rain measurements)
** Current wind speed in m/s (hover to see current wind gust speed)